Wind_Speed
31 32 29 27 27 27 26 27 26 28 27 28 27 27 23 20 22 22 21 26 27 30 35 31 27 28 31 29 27 30 26 26 17 19 18 16 17 17 15 15 20 20 22
28 37 36 41 41 37 34 36 42 43 40 42 42 44 38 33 32 31 31 30 31 31 32 33 34 32 34 36 32 33 32 28 24 21 20 20 18 17 20 17 18 20 22
23 22 25 33 36 39 39 40 40 40 43 48 49 50 48 47 45 35 31 31 34 37 39 37 35 38 39 42 40 39 36 33 26 24 20 20 19 18 18 17 19 22 23
25 26 27 28 31 32 35 37 39 37 42 47 47 48 53 53 51 40 40 42 42 36 37 41 42 40 42 47 45 43 39 37 31 25 22 20 21 18 18 19 21 22 23
30 31 31 31 32 34 35 37 36 39 43 43 43 47 47 49 48 46 47 48 44 37 35 38 40 42 45 47 50 52 51 44 40 39 32 26 18 20 21 19 23 19 19
35 35 36 36 36 36 38 40 41 41 45 48 49 50 50 50 52 55 56 40 35 32 29 30 35 40 45 48 47 52 50 50 49 48 40 35 37 26 24 25 21 22 19
39 38 39 39 37 39 43 42 41 44 46 46 50 53 54 52 52 49 47 40 39 37 37 35 33 37 43 47 50 46 48 49 51 52 47 37 38 37 31 29 27 26 20
42 43 43 45 44 42 42 45 47 45 45 47 49 49 49 48 46 45 44 44 45 42 45 44 41 39 40 43 49 51 48 48 50 54 51 45 44 41 36 35 35 31 26
48 45 44 47 45 45 47 45 46 50 51 49 50 51 52 51 50 46 46 45 44 44 44 44 45 44 42 44 45 51 56 53 51 52 53 53 51 50 44 40 37 39 36
55 53 51 50 52 53 54 54 53 52 53 53 52 52 53 54 55 52 50 50 50 48 48 48 44 45 41 45 48 47 52 55 57 55 53 51 55 54 52 46 43 46 44
61 60 57 55 54 56 58 61 62 60 60 59 56 55 55 56 54 55 54 51 51 51 51 50 48 47 47 48 49 51 51 51 56 61 61 58 54 54 56 56 54 50 49
67 64 64 62 62 61 61 60 61 62 61 63 60 59 59 59 59 56 55 54 53 53 56 54 52 49 51 49 50 55 54 54 54 58 62 63 62 57 56 60 59 56 53
72 72 70 69 65 65 63 63 61 61 61 61 63 63 64 64 63 62 59 58 57 56 55 56 56 55 54 54 52 54 55 55 54 57 58 62 64 64 61 62 64 65 60
76 74 73 71 71 65 64 65 64 62 61 62 64 66 66 65 69 69 66 64 62 60 58 56 56 59 58 57 57 56 55 56 55 56 58 60 62 65 68 65 67 71 69
75 77 79 77 77 76 77 74 74 74 70 71 70 70 71 70 72 74 73 69 68 65 60 61 63 63 62 61 61 61 60 60 59 60 59 60 64 65 69 72 72 73 77
79 80 82 81 79 81 81 83 85 83 82 83 81 80 76 75 76 75 78 78 77 75 73 72 72 72 70 67 64 63 65 62 60 61 63 62 62 65 70 72 77 77 82
83 84 85 87 87 86 87 87 86 86 83 81 86 81 77 80 81 82 83 84 84 82 78 75 73 72 72 67 61 59 59 61 60 57 58 61 62 66 67 71 74 81 82
88 90 91 91 87 84 81 79 78 76 76 78 79 76 75 72 72 74 78 80 85 87 84 80 76 72 69 66 63 62 63 60 60 58 56 58 61 62 65 68 72 78 82
85 81 81 81 81 80 80 79 78 76 75 76 77 77 75 72 69 70 70 72 74 78 80 81 81 77 74 70 67 65 64 63 61 61 59 59 61 62 63 64 67 69 76
79 77 78 76 74 71 70 69 68 67 66 63 61 61 61 60 61 63 64 63 61 60 63 67 68 73 74 72 68 63 59 61 63 64 64 63 64 65 64 63 63 66 69
63 61 57 55 53 51 48 48 49 46 45 45 43 42 41 42 46 47 45 42 42 43 43 42 45 50 54 57 59 54 48 43 43 45 48 55 63 68 67 64 64 64 67
44 45 44 41 38 34 35 34 31 30 28 27 27 24 20 18 20 22 23 24 25 25 27 29 32 37 42 44 43 40 37 40 45 48 51 55 56 60 67 67 66 66 66
46 46 45 40 34 32 29 22 18 18 17 16 16 13 10 10 12 15 19 21 23 23 21 22 25 28 33 38 41 40 43 47 48 48 57 60 59 58 60 59 62 64 66
52 50 47 42 34 31 28 19 18 18 19 17 8 7 10 13 16 19 22 24 28 31 32 29 31 39 43 43 43 44 48 49 49 49 51 50 47 47 51 54 58 58 59
56 53 48 40 35 30 25 20 19 21 16 10 8 10 13 17 20 25 27 28 30 28 27 31 30 31 34 36 42 44 41 41 40 34 29 31 31 33 37 42 48 51 56
48 44 41 36 30 25 22 20 20 17 14 12 12 13 15 19 24 28 28 28 26 23 21 20 19 19 21 23 26 26 26 28 25 19 17 22 26 30 36 42 46 47 51
Wind_Direction
264 260 252 244 263 263 257 255 254 252 260 258 244 270 271 257 264 273 285 272 266 265 261 256 251 249 248 243 250 246 255 265 282 296 280 281 288 288 285 291 298 318 344
259 255 259 252 257 259 249 256 258 257 258 261 257 264 267 267 272 281 287 282 271 262 262 259 250 244 241 243 244 247 243 253 268 266 280 281 289 293 293 305 309 312 332
289 290 278 274 268 264 261 261 264 261 256 262 260 256 261 265 275 278 289 280 286 277 263 259 256 249 238 239 248 247 248 250 258 260 276 275 281 286 283 292 312 318 304
295 292 289 280 275 273 267 264 261 265 260 259 253 257 260 260 271 281 287 284 288 275 270 264 258 255 246 238 241 245 249 251 254 258 261 272 270 274 272 275 305 305 305
293 293 292 291 290 287 281 279 275 271 269 270 266 267 267 270 279 283 282 286 280 273 266 267 259 257 254 249 244 246 249 247 246 251 258 257 260 264 267 270 272 283 299
290 291 293 294 293 290 289 284 281 280 277 275 276 276 276 278 280 280 284 278 276 279 266 266 263 261 257 254 251 248 249 244 244 246 252 247 250 262 263 262 265 279 292
291 290 291 291 290 288 288 283 280 277 276 277 275 276 277 277 276 277 277 272 268 269 269 270 264 262 259 255 255 252 249 247 246 247 251 245 249 255 254 256 255 266 271
295 296 299 299 298 294 291 294 292 286 283 281 279 279 277 275 275 275 271 269 270 269 267 270 263 260 260 256 253 254 254 250 253 251 248 243 245 252 253 255 247 256 255
300 298 296 294 293 293 291 290 290 291 290 283 279 278 276 276 275 274 274 274 268 268 267 269 267 261 257 256 252 251 252 250 250 252 252 248 247 250 253 251 245 249 250
300 299 300 299 299 296 295 292 290 291 290 290 287 284 283 282 280 278 276 275 274 272 269 268 264 261 261 256 257 254 252 251 250 250 250 249 246 248 248 249 248 245 244
295 295 295 296 293 294 293 293 293 293 293 290 287 284 282 280 279 279 276 274 275 274 271 268 265 263 260 258 259 258 251 250 251 252 251 250 247 245 247 247 251 246 240
293 293 292 292 292 290 285 287 287 288 287 286 284 283 282 280 278 275 274 273 271 270 270 269 268 265 263 258 256 257 256 251 248 249 249 249 247 246 244 243 243 245 243
290 291 290 289 288 287 281 283 280 278 279 280 280 278 279 280 276 276 273 271 269 268 268 269 269 266 262 260 257 255 256 254 251 249 248 247 246 243 240 239 238 240 243
289 291 291 288 289 288 287 285 286 282 281 278 277 277 275 276 277 276 274 272 270 268 268 265 265 266 265 262 261 257 256 257 255 252 247 245 245 243 242 238 238 238 239
289 290 292 294 294 294 292 290 287 285 283 281 279 275 276 274 272 272 272 271 271 270 268 266 266 263 263 264 265 264 260 259 258 256 252 246 242 243 241 241 238 237 240
293 292 291 290 287 286 285 285 286 285 284 282 278 276 274 272 271 271 269 265 264 264 266 265 266 265 265 265 264 264 265 260 256 255 253 250 245 241 241 240 239 237 237
292 290 289 288 287 286 284 283 282 282 280 277 278 276 271 270 272 269 267 264 264 263 262 262 263 264 265 262 262 263 264 263 259 256 253 250 248 246 241 240 239 239 237
288 288 287 287 287 285 284 282 281 280 279 278 278 279 278 276 271 269 267 265 264 265 265 263 262 260 260 261 260 264 266 263 260 257 255 253 249 246 247 243 240 239 242
288 288 289 287 285 284 283 283 284 283 282 280 278 278 277 275 273 271 270 268 266 265 266 266 265 265 263 264 265 265 263 260 259 258 256 254 252 249 246 245 244 242 241
289 288 288 288 288 289 289 289 288 284 283 282 281 279 277 277 275 274 272 272 270 267 266 265 263 260 262 266 265 262 261 260 261 260 259 256 253 250 248 247 246 244 244
290 292 293 294 295 296 295 291 292 292 290 288 288 286 283 281 279 280 281 278 276 272 266 263 259 254 253 254 258 259 257 260 262 263 263 261 255 252 250 249 248 247 246
289 292 294 298 301 301 295 295 295 296 297 296 296 298 297 294 292 292 292 288 285 279 272 265 257 251 249 246 247 254 262 267 269 270 271 272 268 257 248 248 249 250 249
290 292 293 297 302 302 299 298 296 297 298 299 304 305 297 297 295 303 302 301 297 285 267 256 259 262 255 253 256 263 269 272 279 279 278 271 263 255 245 242 248 250 252
288 289 291 294 301 297 296 289 292 298 296 297 273 277 300 309 313 314 307 295 294 290 276 265 265 263 258 253 255 259 267 275 281 282 272 262 250 247 238 239 248 254 256
287 287 289 293 292 282 285 280 288 296 284 253 263 275 304 315 324 323 318 309 306 296 279 276 271 264 254 248 247 252 261 274 286 283 268 248 228 229 234 242 249 253 256
288 287 289 287 282 271 272 271 278 278 248 246 259 282 299 320 323 332 331 328 321 309 293 281 276 265 248 243 243 249 263 280 290 282 265 250 248 251 253 255 259 259 260
Height
10975 10976 10976 10977 10978 10978 10978 10978 10978 10978 10979 10979 10977 10976 10977 10975 10975 10973 10972 10971 10971 10970 10969 10969 10970 10970 10971 10973 10973 10974 10974 10975 10975 10972 10969 10969 10968 10966 10965 10964 10962 10962 10959
10970 10969 10968 10968 10969 10971 10971 10971 10971 10972 10971 10971 10971 10971 10968 10968 10968 10966 10964 10962 10961 10960 10959 10960 10959 10959 10960 10962 10964 10965 10966 10965 10966 10967 10964 10964 10964 10962 10960 10960 10959 10956 10954
10960 10960 10961 10961 10961 10961 10961 10961 10961 10961 10962 10961 10961 10960 10959 10958 10957 10955 10954 10953 10951 10949 10947 10948 10947 10948 10950 10950 10952 10956 10957 10959 10959 10960 10960 10959 10960 10958 10955 10956 10954 10952 10950
10954 10952 10951 10951 10951 10950 10949 10949 10950 10949 10949 10949 10948 10949 10947 10946 10946 10944 10942 10941 10939 10936 10933 10934 10933 10935 10937 10939 10941 10942 10946 10950 10952 10952 10953 10954 10954 10953 10951 10949 10949 10947 10945
10948 10946 10944 10942 10940 10938 10937 10935 10935 10935 10935 10933 10933 10933 10934 10934 10932 10930 10930 10929 10925 10923 10921 10919 10919 10920 10923 10926 10928 10931 10934 10938 10941 10942 10944 10945 10946 10945 10944 10945 10943 10942 10938
10941 10939 10936 10934 10932 10930 10927 10925 10922 10921 10920 10919 10917 10918 10918 10920 10917 10917 10916 10916 10913 10911 10910 10908 10907 10907 10908 10912 10915 10918 10920 10924 10927 10930 10933 10936 10938 10939 10938 10937 10936 10936 10933
10931 10928 10925 10923 10922 10921 10918 10915 10913 10911 10909 10906 10905 10904 10903 10905 10905 10903 10902 10900 10899 10899 10898 10897 10896 10895 10896 10898 10901 10904 10907 10909 10912 10916 10920 10925 10926 10927 10928 10928 10929 10928 10928
10919 10917 10915 10912 10910 10907 10903 10900 10897 10896 10895 10894 10893 10891 10889 10889 10890 10887 10886 10885 10884 10885 10885 10883 10884 10884 10884 10884 10886 10888 10891 10894 10897 10901 10905 10911 10911 10913 10916 10918 10920 10922 10920
10907 10904 10901 10897 10895 10894 10891 10888 10885 10883 10880 10880 10879 10877 10875 10873 10872 10872 10871 10870 10870 10870 10870 10869 10869 10871 10872 10869 10871 10872 10874 10878 10880 10884 10888 10893 10896 10899 10903 10907 10908 10911 10911
10893 10891 10888 10886 10884 10880 10875 10872 10870 10867 10864 10861 10859 10858 10857 10855 10853 10854 10855 10854 10853 10854 10854 10854 10855 10855 10857 10856 10855 10858 10857 10860 10864 10867 10870 10875 10879 10884 10889 10894 10897 10899 10900
10878 10876 10875 10874 10871 10866 10861 10857 10852 10849 10846 10843 10842 10840 10840 10838 10837 10835 10837 10838 10837 10837 10836 10837 10839 10840 10840 10841 10839 10838 10841 10845 10846 10847 10852 10856 10862 10867 10871 10878 10880 10883 10888
10865 10862 10859 10857 10854 10853 10848 10844 10841 10835 10829 10826 10824 10822 10821 10820 10819 10819 10819 10820 10821 10821 10819 10819 10822 10823 10821 10823 10823 10819 10822 10827 10829 10829 10832 10836 10842 10848 10853 10858 10864 10867 10871
10844 10842 10841 10838 10835 10832 10830 10828 10823 10820 10815 10810 10806 10802 10799 10799 10800 10799 10801 10802 10803 10804 10802 10801 10802 10803 10801 10801 10803 10802 10802 10806 10809 10813 10814 10817 10821 10826 10832 10839 10844 10848 10853
10826 10823 10819 10816 10814 10811 10807 10804 10801 10798 10795 10793 10788 10785 10781 10779 10774 10774 10776 10779 10780 10783 10784 10784 10781 10779 10782 10782 10781 10783 10785 10785 10788 10792 10795 10799 10803 10806 10810 10817 10823 10829 10833
10806 10802 10797 10794 10790 10785 10781 10778 10776 10772 10770 10767 10765 10763 10759 10756 10752 10751 10752 10754 10755 10757 10761 10762 10761 10760 10760 10762 10762 10763 10765 10767 10768 10769 10772 10777 10782 10786 10789 10793 10799 10806 10811
10783 10780 10775 10772 10766 10760 10757 10755 10749 10745 10741 10737 10735 10733 10732 10731 10729 10728 10729 10729 10729 10730 10734 10735 10736 10737 10737 10738 10741 10740 10741 10744 10746 10747 10748 10752 10758 10762 10766 10771 10775 10781 10786
10760 10755 10750 10744 10738 10733 10728 10724 10721 10713 10711 10706 10700 10700 10701 10701 10700 10702 10699 10698 10700 10700 10704 10707 10710 10711 10713 10716 10718 10718 10720 10720 10723 10726 10728 10730 10733 10737 10741 10747 10753 10756 10763
10734 10728 10722 10716 10710 10704 10700 10696 10691 10689 10685 10678 10674 10673 10671 10673 10676 10672 10669 10672 10673 10672 10677 10681 10684 10686 10689 10691 10695 10697 10697 10699 10701 10704 10706 10709 10711 10714 10717 10723 10729 10734 10736
10709 10701 10695 10690 10684 10678 10673 10668 10665 10662 10659 10655 10648 10644 10642 10644 10646 10645 10646 10649 10648 10647 10649 10653 10655 10659 10663 10668 10672 10674 10676 10677 10679 10681 10684 10686 10688 10691 10695 10700 10706 10709 10713
10687 10681 10670 10664 10658 10653 10648 10644 10640 10635 10631 10628 10624 10622 10620 10619 10618 10618 10620 10622 10624 10627 10626 10628 10630 10635 10638 10641 10645 10650 10654 10655 10655 10658 10659 10662 10664 10668 10674 10679 10685 10689 10691
10665 10657 10651 10644 10640 10635 10629 10624 10620 10616 10613 10609 10606 10605 10605 10604 10601 10600 10599 10600 10602 10603 10603 10605 10608 10613 10618 10621 10624 10629 10633 10636 10637 10636 10636 10637 10642 10647 10652 10659 10664 10668 10671
10650 10644 10639 10634 10630 10624 10617 10613 10609 10605 10602 10599 10597 10596 10596 10594 10593 10591 10589 10589 10590 10590 10591 10592 10595 10598 10602 10606 10608 10613 10617 10619 10618 10618 10617 10618 10620 10623 10628 10635 10640 10643 10648
10636 10631 10627 10623 10620 10615 10609 10606 10602 10600 10598 10596 10594 10592 10592 10591 10590 10589 10588 10586 10585 10585 10585 10586 10588 10590 10592 10594 10596 10599 10600 10599 10599 10598 10595 10592 10594 10598 10603 10611 10616 10621 10624
10620 10615 10612 10610 10609 10606 10602 10599 10597 10595 10593 10592 10591 10590 10589 10588 10587 10585 10583 10580 10578 10576 10575 10576 10577 10577 10578 10580 10583 10585 10584 10582 10582 10579 10571 10569 10572 10578 10585 10592 10598 10602 10606
10601 10597 10596 10595 10595 10594 10594 10592 10591 10590 10588 10588 10589 10587 10586 10584 10582 10579 10575 10571 10566 10563 10561 10562 10560 10559 10560 10563 10567 10570 10572 10571 10568 10562 10558 10557 10560 10567 10574 10581 10585 10587 10586
10580 10580 10581 10581 10582 10583 10584 10585 10584 10584 10584 10585 10584 10583 10581 10579 10576 10573 10568 10562 10556 10553 10550 10548 10548 10548 10550 10553 10557 10561 10563 10563 10560 10556 10554 10555 10558 10561 10564 10567 10568 10567 10566